Glens Falls, NY

10:58 PM EDT on August 22, 2017 (GMT -0400)
Bennett Memorial

Weather History for KGFL - March, 2013

Change the Weather History Date:

Sunday, March 17, 2013

  Actual Average Record
Temperature  
Mean Temperature 24 °F 32 °F  
Max Temperature 34 °F 43 °F 69 °F (1990)
Min Temperature 14 °F 21 °F 2 °F (2014)
Degree Days  
Heating Degree Days 41 33  
Month to date heating degree days 528 622  
Since 1 July heating degree days 5629 6242  
Cooling Degree Days 0 0  
Month to date cooling degree days 0 0  
Year to date cooling degree days 0 0  
Moisture  
Dew Point 7 °F    
Average Humidity 53    
Maximum Humidity 80    
Minimum Humidity 26    
Precipitation  
Precipitation 0.00 in 0.09 in 1.57 in (1973)
Month to date precipitation 1.94 1.58  
Year to date precipitation 4.24 6.52  
Sea Level Pressure  
Sea Level Pressure 30.13 in    
Wind  
Wind Speed 8 mph (NNW)    
Max Wind Speed 22 mph    
Max Gust Speed 28 mph    
Visibility 10 miles    
Events      
T = Trace of Precipitation, MM = Missing Value Source: NWS Daily Summary

Daily Weather History Graph

Daily Weather History Graph

Search for Another Location

Airport or City:

Trip Planner

Search our weather history database for the weather conditions in past years. The results will help you decide how hot, cold, wet, or windy it might be!

Date:

Astronomy

Mar. 17, 2013 Rise Set
Actual Time 7:02 AM EDT 7:03 PM EDT
Civil Twilight 6:34 AM EDT 7:31 PM EDT
Nautical Twilight 6:01 AM EDT 8:05 PM EDT
Astronomical Twilight 5:27 AM EDT 8:39 PM EDT
Moon 10:03 AM EDT (3/17) 12:17 AM EDT (3/17)
Length of Visible Light 12h 57m
Length of Day
12h 00m
Waxing Crescent, 31% of the Moon is Illuminated
Mar 17
Waxing Crescent
Mar 19
First Quarter
Mar 27
Full
Apr 3
Last Quarter
Apr 10
New

Hourly Weather History & Observations

Time (EDT) Temp. Windchill Dew Point Humidity Pressure Visibility Wind Dir Wind Speed Gust Speed Precip Events Conditions
12:53 AM 21.9 °F 17.2 °F 14.0 °F 72% 29.95 in 10.0 mi ENE 3.5 mph - N/A   Clear
1:53 AM 19.9 °F - 14.0 °F 78% 29.96 in 10.0 mi Calm Calm - N/A   Clear
2:17 AM 19.4 °F - 14.0 °F 80% 29.94 in 10.0 mi Calm Calm - N/A   Mostly Cloudy
2:53 AM 21.9 °F - 15.1 °F 75% 29.99 in 10.0 mi Calm Calm - N/A   Overcast
3:18 AM 21.2 °F 16.4 °F 14.0 °F 74% 29.96 in 10.0 mi North 3.5 mph - N/A   Scattered Clouds
3:53 AM 19.0 °F 9.0 °F 10.9 °F 71% 30.01 in 10.0 mi NNW 8.1 mph - N/A   Clear
4:53 AM 18.0 °F - 12.0 °F 78% 30.01 in 10.0 mi Calm Calm - N/A   Clear
5:53 AM 16.0 °F - 10.9 °F 81% 30.01 in 10.0 mi Calm Calm - N/A   Clear
6:53 AM 15.1 °F - 10.9 °F 84% 30.04 in 10.0 mi Calm Calm - N/A   Clear
7:53 AM 19.0 °F 13.9 °F 12.0 °F 74% 30.06 in 10.0 mi WSW 3.5 mph - N/A   Overcast
8:53 AM 24.1 °F 16.0 °F 10.9 °F 57% 30.09 in 10.0 mi WSW 6.9 mph - N/A   Clear
9:53 AM 26.1 °F 16.8 °F 8.1 °F 47% 30.11 in 10.0 mi NNW 9.2 mph 21.9 mph N/A   Clear
10:53 AM 28.0 °F 18.1 °F 7.0 °F 41% 30.13 in 10.0 mi WNW 11.5 mph - N/A   Clear
11:53 AM 28.9 °F 17.7 °F 3.0 °F 33% 30.14 in 10.0 mi NW 15.0 mph - N/A   Clear
12:53 PM 30.9 °F 19.8 °F 1.9 °F 29% 30.15 in 10.0 mi NW 16.1 mph 27.6 mph N/A   Partly Cloudy
1:53 PM 32.0 °F 21.2 °F 1.9 °F 28% 30.16 in 10.0 mi North 16.1 mph 23.0 mph N/A   Scattered Clouds
2:53 PM 32.0 °F 21.2 °F 3.9 °F 31% 30.15 in 10.0 mi North 16.1 mph 21.9 mph N/A   Scattered Clouds
3:53 PM 33.1 °F 23.4 °F 3.0 °F 28% 30.16 in 10.0 mi NNW 13.8 mph - N/A   Clear
4:53 PM 34.0 °F 25.5 °F 3.0 °F 27% 30.17 in 10.0 mi NNW 11.5 mph 21.9 mph N/A   Clear
5:53 PM 32.0 °F 23.0 °F 1.0 °F 27% 30.19 in 10.0 mi North 11.5 mph 20.7 mph N/A   Clear
6:53 PM 30.0 °F 20.5 °F -0.0 °F 28% 30.23 in 10.0 mi NNW 11.5 mph - N/A   Clear
7:53 PM 28.0 °F 20.0 °F -0.0 °F 30% 30.27 in 10.0 mi North 8.1 mph - N/A   Clear
8:53 PM 26.1 °F 15.6 °F -0.9 °F 31% 30.31 in 10.0 mi North 11.5 mph - N/A   Clear
9:53 PM 25.0 °F 14.2 °F -2.0 °F 31% 30.35 in 10.0 mi NNW 11.5 mph 19.6 mph N/A   Clear
10:53 PM 21.9 °F 14.5 °F -0.9 °F 37% 30.37 in 10.0 mi North 5.8 mph - N/A   Clear
11:53 PM 19.0 °F 13.9 °F 1.9 °F 47% 30.38 in 10.0 mi North 3.5 mph - N/A   Clear